BAW2231 EGKK-VTBS

Flight info

Callsign BAW2231
Flight time N/A
Altitude 33000
Route ODVIK Y311 DVR UL9 KONAN DCT KOK DCT MATUG DCT BOMBI DCT TENLO DCT DEXIT/N0479F350 DCT DEGET DCT UDROS UM859 KARDE UL851 TBN UR317 REBLO P130 NATSO/N0475F370 P130 MAMED B449 RANAH L750 MERUN G452 ALI/N0482F390 G452 LKN R460 BBN P646 JJS Z12 DOPID P646 PTN N895 BETNO G463 TARED DCT WILLA WILLA1C
Aircraft B772/H-SDE1E3FGHIJ3J5J6M1M2P2RWXYZ/LB1D1

Departure

Time N/A
Airport London Gatwick Airport (EGKK)

Arrival

Time 2026-05-01 08:55
Airport Suvarnabhumi Airport (VTBS)
Time Latitude Longitude Altitude Speed Heading
2026-05-01 07:23 19.49384 91.20808 38838 ft 516 kts 130°
2026-05-01 07:24 19.42830 91.29870 38835 ft 516 kts 130°
2026-05-01 07:24 19.38460 91.35905 38834 ft 517 kts 130°
2026-05-01 07:25 19.34086 91.41939 38836 ft 517 kts 130°
2026-05-01 07:25 19.29702 91.47981 38834 ft 517 kts 130°
2026-05-01 07:26 19.25322 91.54012 38840 ft 517 kts 130°
2026-05-01 07:26 19.20956 91.60017 38837 ft 517 kts 130°
2026-05-01 07:27 19.16542 91.66083 38839 ft 517 kts 130°
2026-05-01 07:27 19.12185 91.72064 38840 ft 517 kts 130°
2026-05-01 07:28 19.07791 91.78090 38838 ft 517 kts 130°
2026-05-01 07:28 19.03397 91.84110 38841 ft 516 kts 130°
2026-05-01 07:29 18.99012 91.90113 38846 ft 516 kts 130°
2026-05-01 07:29 18.94628 91.96108 38843 ft 516 kts 130°
2026-05-01 07:30 18.90239 92.02092 38840 ft 515 kts 130°
2026-05-01 07:30 18.85810 92.08032 38846 ft 515 kts 131°
2026-05-01 07:31 18.81364 92.13968 38848 ft 515 kts 131°
2026-05-01 07:32 18.70282 92.28781 38854 ft 514 kts 131°
2026-05-01 07:33 18.63671 92.37608 38853 ft 513 kts 131°
2026-05-01 07:33 18.57041 92.46449 38853 ft 512 kts 131°
2026-05-01 07:34 18.50421 92.55262 38852 ft 511 kts 131°
2026-05-01 07:35 18.46015 92.61122 38857 ft 510 kts 131°
2026-05-01 07:35 18.41617 92.66966 38852 ft 510 kts 131°
2026-05-01 07:36 18.37216 92.72807 38861 ft 509 kts 131°
2026-05-01 07:36 18.32818 92.78639 38856 ft 508 kts 131°
2026-05-01 07:37 18.26222 92.87377 38857 ft 508 kts 131°
2026-05-01 07:37 18.21828 92.93192 38854 ft 507 kts 131°
2026-05-01 07:38 18.17439 92.98994 38854 ft 507 kts 131°
2026-05-01 07:39 18.10854 93.07689 38854 ft 506 kts 131°
2026-05-01 07:39 18.04315 93.16313 38854 ft 506 kts 131°
2026-05-01 07:40 17.99929 93.22090 38855 ft 506 kts 130°
2026-05-01 07:40 17.95543 93.27863 38855 ft 506 kts 130°
2026-05-01 07:41 17.91155 93.33633 38856 ft 506 kts 130°
2026-05-01 07:42 17.84566 93.42288 38854 ft 506 kts 130°
2026-05-01 07:42 17.80167 93.48059 38856 ft 506 kts 130°
2026-05-01 07:43 17.75769 93.53825 38856 ft 506 kts 130°
2026-05-01 07:43 17.69180 93.62453 38856 ft 505 kts 130°
2026-05-01 07:44 17.60389 93.73948 38864 ft 505 kts 130°
2026-05-01 07:45 17.56025 93.79646 38862 ft 504 kts 130°
2026-05-01 07:45 17.51631 93.85378 38864 ft 504 kts 130°
2026-05-01 07:46 17.47250 93.91090 38864 ft 503 kts 130°
2026-05-01 07:47 17.40682 93.99643 38867 ft 503 kts 130°
2026-05-01 07:47 17.36296 94.05347 38863 ft 502 kts 130°
2026-05-01 07:48 17.29740 94.13866 38868 ft 501 kts 130°
2026-05-01 07:48 17.25367 94.19543 38872 ft 500 kts 130°
2026-05-01 07:50 17.14672 94.33406 38871 ft 498 kts 130°
2026-05-01 07:50 17.08144 94.41854 38871 ft 497 kts 130°
2026-05-01 07:51 17.03798 94.47473 38874 ft 497 kts 130°
2026-05-01 07:52 16.97276 94.55896 38870 ft 497 kts 131°
2026-05-01 07:52 16.92924 94.61509 38870 ft 496 kts 131°
2026-05-01 07:53 16.86413 94.69903 38869 ft 496 kts 131°
2026-05-01 07:53 16.82088 94.75532 38865 ft 497 kts 129°
2026-05-01 07:55 16.73847 94.91420 38861 ft 501 kts 119°
2026-05-01 07:56 16.66005 95.07635 38857 ft 500 kts 120°
2026-05-01 07:57 16.61280 95.17312 38856 ft 499 kts 120°
2026-05-01 07:58 16.54980 95.30204 38852 ft 498 kts 120°
2026-05-01 07:59 16.48691 95.43050 38847 ft 497 kts 121°
2026-05-01 08:00 16.39291 95.62207 38842 ft 495 kts 121°
2026-05-01 08:01 16.33007 95.74981 38853 ft 496 kts 121°
2026-05-01 08:02 16.28288 95.84561 38847 ft 496 kts 121°
2026-05-01 08:03 16.23560 95.94143 38853 ft 496 kts 121°
2026-05-01 08:03 16.18824 96.03730 38853 ft 496 kts 121°
2026-05-01 08:04 16.12530 96.16452 38856 ft 496 kts 121°
2026-05-01 08:05 16.07795 96.26005 38859 ft 495 kts 121°
2026-05-01 08:06 16.03061 96.35543 38853 ft 494 kts 121°
2026-05-01 08:07 15.96748 96.48242 38851 ft 494 kts 121°
2026-05-01 08:08 15.92012 96.57754 38852 ft 494 kts 121°
2026-05-01 08:09 15.85710 96.70393 38854 ft 494 kts 121°
2026-05-01 08:09 15.82541 96.76739 38855 ft 495 kts 122°
2026-05-01 08:10 15.76196 96.89429 38853 ft 495 kts 122°
2026-05-01 08:11 15.69838 97.02121 38857 ft 495 kts 122°
2026-05-01 08:12 15.65062 97.11641 38859 ft 496 kts 122°
2026-05-01 08:13 15.60305 97.21111 38859 ft 496 kts 122°
2026-05-01 08:13 15.55518 97.30629 38858 ft 496 kts 121°
2026-05-01 08:14 15.52320 97.36978 38859 ft 496 kts 121°
2026-05-01 08:14 15.49121 97.43326 38862 ft 497 kts 121°
2026-05-01 08:15 15.44318 97.52846 38861 ft 497 kts 121°
2026-05-01 08:16 15.41113 97.59190 38862 ft 497 kts 121°
2026-05-01 08:16 15.37926 97.65495 38863 ft 497 kts 121°
2026-05-01 08:17 15.34714 97.71843 38866 ft 497 kts 121°
2026-05-01 08:17 15.31497 97.78195 38867 ft 498 kts 121°
2026-05-01 08:18 15.28276 97.84550 38866 ft 499 kts 121°
2026-05-01 08:19 15.21813 97.97284 38869 ft 500 kts 121°
2026-05-01 08:19 15.18569 98.03668 38870 ft 501 kts 121°
2026-05-01 08:20 15.15323 98.10051 38880 ft 502 kts 121°
2026-05-01 08:20 15.12088 98.16407 38877 ft 503 kts 121°
2026-05-01 08:21 15.08835 98.22807 38877 ft 502 kts 120°
2026-05-01 08:21 15.05636 98.29231 38883 ft 502 kts 120°
2026-05-01 08:22 15.02453 98.35667 38888 ft 503 kts 120°
2026-05-01 08:22 14.99259 98.42103 38886 ft 503 kts 120°
2026-05-01 08:23 14.96053 98.48543 38900 ft 504 kts 120°
2026-05-01 08:23 14.92840 98.54986 38896 ft 504 kts 120°
2026-05-01 08:24 14.89626 98.61428 38903 ft 505 kts 120°
2026-05-01 08:24 14.86426 98.67837 38889 ft 505 kts 120°
2026-05-01 08:25 14.83205 98.74282 38882 ft 505 kts 120°
2026-05-01 08:25 14.82114 98.76465 38550 ft 509 kts 120°
2026-05-01 08:25 14.79947 98.80793 37625 ft 511 kts 120°
2026-05-01 08:25 14.78315 98.84055 36986 ft 510 kts 120°
2026-05-01 08:26 14.76698 98.87287 36568 ft 504 kts 120°
2026-05-01 08:26 14.75096 98.90487 36130 ft 499 kts 120°
2026-05-01 08:26 14.74045 98.92586 35852 ft 496 kts 120°
2026-05-01 08:26 14.72468 98.95734 35406 ft 491 kts 120°
2026-05-01 08:27 14.70900 98.98862 34964 ft 488 kts 120°
2026-05-01 08:27 14.69344 99.01962 34526 ft 484 kts 120°
2026-05-01 08:27 14.67799 99.05040 34062 ft 482 kts 120°
2026-05-01 08:27 14.66261 99.08103 33575 ft 479 kts 120°
2026-05-01 08:28 14.64731 99.11148 33090 ft 476 kts 120°
2026-05-01 08:28 14.63212 99.14171 32630 ft 473 kts 120°
2026-05-01 08:28 14.61700 99.17179 32172 ft 470 kts 119°
2026-05-01 08:28 14.60198 99.20165 31731 ft 467 kts 119°
2026-05-01 08:29 14.58704 99.23135 31260 ft 464 kts 119°
2026-05-01 08:29 14.57220 99.26082 30825 ft 462 kts 119°
2026-05-01 08:29 14.55740 99.29021 30359 ft 460 kts 119°
2026-05-01 08:29 14.54270 99.31940 29893 ft 458 kts 119°
2026-05-01 08:30 14.52804 99.34850 29339 ft 455 kts 119°
2026-05-01 08:30 14.51367 99.37702 28838 ft 451 kts 119°
2026-05-01 08:30 14.49926 99.40561 28335 ft 447 kts 119°
2026-05-01 08:30 14.48496 99.43396 27847 ft 443 kts 119°
2026-05-01 08:31 14.47078 99.46206 27357 ft 439 kts 119°
2026-05-01 08:31 14.45674 99.48988 26876 ft 436 kts 119°
2026-05-01 08:31 14.44325 99.51764 26398 ft 431 kts 114°
2026-05-01 08:31 14.43582 99.54739 25921 ft 426 kts 95°
2026-05-01 08:32 14.43424 99.57771 25481 ft 421 kts 93°
2026-05-01 08:32 14.43291 99.60786 25024 ft 420 kts 93°
2026-05-01 08:32 14.43148 99.63786 24557 ft 418 kts 94°
2026-05-01 08:32 14.42988 99.66774 24093 ft 416 kts 94°
2026-05-01 08:33 14.42815 99.69750 23638 ft 415 kts 94°
2026-05-01 08:33 14.42634 99.72715 23135 ft 414 kts 94°
2026-05-01 08:33 14.42448 99.75665 22632 ft 411 kts 94°
2026-05-01 08:33 14.42261 99.78602 22161 ft 408 kts 94°
2026-05-01 08:34 14.42077 99.81473 21714 ft 405 kts 94°
2026-05-01 08:34 14.41892 99.84365 21264 ft 402 kts 94°
2026-05-01 08:34 14.41709 99.87229 20823 ft 399 kts 94°
2026-05-01 08:34 14.41527 99.90080 20385 ft 397 kts 94°
2026-05-01 08:35 14.41345 99.92916 19955 ft 395 kts 95°
2026-05-01 08:35 14.41163 99.95736 19502 ft 393 kts 95°
2026-05-01 08:35 14.40982 99.98540 19060 ft 392 kts 95°
2026-05-01 08:35 14.40803 100.01340 18617 ft 391 kts 95°
2026-05-01 08:36 14.40623 100.04135 18175 ft 389 kts 95°
2026-05-01 08:36 14.40378 100.06898 17730 ft 383 kts 101°
2026-05-01 08:36 14.39783 100.09541 17448 ft 375 kts 107°
2026-05-01 08:36 14.39055 100.12091 17161 ft 367 kts 108°
2026-05-01 08:37 14.38355 100.14601 16889 ft 361 kts 107°
2026-05-01 08:37 14.37704 100.17087 16639 ft 358 kts 106°
2026-05-01 08:37 14.37074 100.19567 16365 ft 355 kts 105°
2026-05-01 08:37 14.36460 100.22024 16105 ft 353 kts 105°
2026-05-01 08:38 14.35851 100.24468 15847 ft 351 kts 105°
2026-05-01 08:38 14.35244 100.26900 15601 ft 349 kts 105°
2026-05-01 08:38 14.34640 100.29318 15346 ft 348 kts 105°
2026-05-01 08:38 14.34044 100.31697 15092 ft 346 kts 105°
2026-05-01 08:39 14.33442 100.34100 14838 ft 345 kts 105°
2026-05-01 08:39 14.32841 100.36495 14583 ft 344 kts 105°
2026-05-01 08:39 14.32243 100.38878 14336 ft 343 kts 105°
2026-05-01 08:39 14.31648 100.41246 14180 ft 339 kts 105°
2026-05-01 08:40 14.30471 100.45936 13743 ft 337 kts 106°
2026-05-01 08:40 14.29883 100.48275 13491 ft 337 kts 106°
2026-05-01 08:40 14.29293 100.50620 13222 ft 337 kts 106°
2026-05-01 08:41 14.28703 100.52964 12973 ft 337 kts 106°
2026-05-01 08:41 14.28122 100.55274 12723 ft 337 kts 105°
2026-05-01 08:41 14.27534 100.57610 12470 ft 336 kts 106°
2026-05-01 08:41 14.26948 100.59938 12237 ft 335 kts 105°
2026-05-01 08:42 14.26303 100.62223 11986 ft 328 kts 115°
2026-05-01 08:42 14.25022 100.64123 11741 ft 322 kts 139°
2026-05-01 08:42 14.23141 100.65324 11522 ft 318 kts 161°
2026-05-01 08:42 14.20990 100.65796 11295 ft 317 kts 178°
2026-05-01 08:43 14.18816 100.65560 11068 ft 314 kts 194°
2026-05-01 08:43 14.16705 100.64995 10831 ft 313 kts 195°
2026-05-01 08:43 14.14608 100.64402 10638 ft 311 kts 195°
2026-05-01 08:43 14.12540 100.63823 10363 ft 305 kts 195°
2026-05-01 08:44 14.10507 100.63271 10129 ft 299 kts 195°
2026-05-01 08:44 14.08512 100.62740 9913 ft 293 kts 194°
2026-05-01 08:44 14.06554 100.62224 9723 ft 287 kts 194°
2026-05-01 08:44 14.04642 100.61721 9540 ft 280 kts 194°
2026-05-01 08:45 14.02790 100.61282 9405 ft 267 kts 186°
2026-05-01 08:45 14.00974 100.61521 9131 ft 265 kts 158°
2026-05-01 08:45 13.99477 100.62550 8853 ft 264 kts 136°
2026-05-01 08:45 13.98394 100.64070 8594 ft 264 kts 115°
2026-05-01 08:46 13.97813 100.65844 8360 ft 261 kts 107°
2026-05-01 08:46 13.97366 100.67648 8109 ft 259 kts 105°
2026-05-01 08:46 13.97101 100.69462 7836 ft 257 kts 86°
2026-05-01 08:46 13.97650 100.71191 7612 ft 257 kts 57°
2026-05-01 08:47 13.98919 100.72467 7376 ft 257 kts 31°
2026-05-01 08:47 14.00506 100.73246 7125 ft 250 kts 32°
2026-05-01 08:47 14.01684 100.74502 6812 ft 243 kts 67°
2026-05-01 08:47 14.02040 100.76175 6489 ft 240 kts 91°
2026-05-01 08:48 14.01972 100.77893 6171 ft 241 kts 94°
2026-05-01 08:48 14.01880 100.79621 5846 ft 244 kts 94°
2026-05-01 08:48 14.01725 100.81353 5490 ft 242 kts 105°
2026-05-01 08:48 14.00909 100.82844 5104 ft 241 kts 138°
2026-05-01 08:49 13.99468 100.83648 4924 ft 234 kts 168°
2026-05-01 08:49 13.97865 100.83694 4655 ft 231 kts 190°
2026-05-01 08:49 13.96303 100.83323 4398 ft 230 kts 194°
2026-05-01 08:49 13.94764 100.82900 4130 ft 229 kts 194°
2026-05-01 08:50 13.93228 100.82476 3879 ft 227 kts 195°
2026-05-01 08:50 13.91705 100.82055 3614 ft 227 kts 194°
2026-05-01 08:50 13.90178 100.81643 3347 ft 226 kts 194°
2026-05-01 08:50 13.88687 100.81245 3151 ft 223 kts 194°
2026-05-01 08:51 13.87190 100.80849 2959 ft 220 kts 194°
2026-05-01 08:51 13.85728 100.80464 2831 ft 213 kts 194°
2026-05-01 08:51 13.84329 100.80103 2816 ft 200 kts 194°
2026-05-01 08:51 13.83009 100.79759 2658 ft 194 kts 194°
2026-05-01 08:52 13.81718 100.79418 2456 ft 189 kts 194°
2026-05-01 08:52 13.80456 100.79085 2207 ft 186 kts 194°
2026-05-01 08:52 13.79223 100.78757 1948 ft 180 kts 194°
2026-05-01 08:52 13.78065 100.78452 1728 ft 163 kts 193°
2026-05-01 08:53 13.77010 100.78173 1563 ft 158 kts 193°
2026-05-01 08:53 13.75947 100.77893 1348 ft 152 kts 192°
2026-05-01 08:53 13.74932 100.77626 1164 ft 145 kts 193°
2026-05-01 08:53 13.73967 100.77369 971 ft 140 kts 193°
2026-05-01 08:54 13.73002 100.77109 793 ft 143 kts 195°
2026-05-01 08:54 13.71998 100.76846 633 ft 153 kts 194°
2026-05-01 08:54 13.70985 100.76586 397 ft 144 kts 195°
2026-05-01 08:54 13.70049 100.76332 244 ft 141 kts 195°
2026-05-01 08:55 13.69110 100.76087 47 ft 139 kts 195°
2026-05-01 08:55 13.68224 100.75854 21 ft 118 kts 195°
2026-05-01 08:55 13.67607 100.75694 16 ft 65 kts 194°
2026-05-01 08:55 13.67330 100.75616 19 ft 29 kts 200°
2026-05-01 08:56 13.67169 100.75521 17 ft 25 kts 220°
2026-05-01 08:56 13.67093 100.75439 17 ft 12 kts 245°
2026-05-01 08:56 13.67100 100.75389 17 ft 6 kts 306°
2026-05-01 08:56 13.67142 100.75378 18 ft 6 kts
2026-05-01 08:57 13.67186 100.75390 18 ft 7 kts 17°
2026-05-01 08:57 13.67249 100.75408 17 ft 14 kts 15°
2026-05-01 08:57 13.67342 100.75432 17 ft 14 kts 13°
2026-05-01 08:57 13.67434 100.75456 17 ft 14 kts 15°
2026-05-01 08:58 13.67527 100.75480 17 ft 14 kts 13°
2026-05-01 08:58 13.67620 100.75505 17 ft 14 kts 15°
2026-05-01 08:58 13.67706 100.75528 17 ft 10 kts 14°
2026-05-01 08:58 13.67761 100.75508 17 ft 9 kts 301°
2026-05-01 08:59 13.67793 100.75455 19 ft 9 kts 342°
2026-05-01 08:59 13.67856 100.75466 17 ft 10 kts 15°
2026-05-01 08:59 13.67951 100.75491 17 ft 17 kts 14°
2026-05-01 08:59 13.68066 100.75521 17 ft 17 kts 14°
2026-05-01 09:00 13.68179 100.75551 17 ft 12 kts 14°
2026-05-01 09:00 13.68238 100.75545 17 ft 9 kts 315°
2026-05-01 09:00 13.68260 100.75488 17 ft 9 kts 285°
2026-05-01 09:00 13.68275 100.75429 17 ft 9 kts 284°
2026-05-01 09:01 13.68290 100.75369 17 ft 9 kts 284°
2026-05-01 09:01 13.68308 100.75300 17 ft 10 kts 285°
2026-05-01 09:01 13.68327 100.75222 18 ft 12 kts 284°
2026-05-01 09:01 13.68352 100.75126 18 ft 15 kts 284°
2026-05-01 09:02 13.68379 100.75020 18 ft 16 kts 284°
2026-05-01 09:02 13.68406 100.74912 18 ft 16 kts 284°
2026-05-01 09:02 13.68433 100.74804 18 ft 16 kts 284°
2026-05-01 09:02 13.68450 100.74738 18 ft 7 kts 285°